Weather History for Portland Troutdale, OR

Change the Weather History Date:

Sunday, January 6, 2013

  Actual Average Record
Temperature  
Mean Temperature 37 °F 39 °F  
Max Temperature 39 °F 45 °F 60 °F (1990)
Min Temperature 34 °F 33 °F 5 °F (2004)
Degree Days  
Heating Degree Days 28 26  
Month to date heating degree days 174 160  
Cooling Degree Days 0 0  
Month to date cooling degree days 0 0  
Moisture  
Dew Point 32 °F    
Average Humidity 84    
Maximum Humidity 92    
Minimum Humidity 75    
Precipitation  
Precipitation 0.11 in 0.23 in 2.48 in (1948)
Month to date precipitation 0.11 1.37  
Year to date precipitation 0.11 1.37  
Snow  
Snow 0.00 in - - ()
Month to date snowfall 0.0  
Snow Depth 0.00 in    
Sea Level Pressure  
Sea Level Pressure 30.19 in    
Wind  
Wind Speed 10 mph (East)    
Max Wind Speed 21 mph    
Max Gust Speed 29 mph    
Visibility 9 miles    
Events Rain    
T = Trace of Precipitation, MM = Missing Value Source: NWS Daily Summary

Daily Weather History Graph

Daily Weather History Graph

Search for Another Location

Airport:

Trip Planner

Search our weather history database for the weather conditions in past years. The results will help you decide how hot, cold, wet, or windy it might be!

Date:

Astronomy

Jan. 06, 2013 Rise Set
Actual Time 7:49 AM PST 4:42 PM PST
Civil Twilight 7:15 AM PST 5:15 PM PST
Nautical Twilight 6:38 AM PST 5:53 PM PST
Astronomical Twilight 6:02 AM PST 6:29 PM PST
Moon 2:03 AM PST (1/6) 12:18 PM PST (1/6)
Length of Visible Light 10h 00m
Length of Day
8h 52m
Waning Crescent, 32% of the Moon is Illuminated
Jan 6
Waning Crescent
Jan 11
New
Jan 18
First Quarter
Jan 26
Full
Feb 3
Last Quarter

Hourly Weather History & Observations

Time (PST) Temp. Windchill Dew Point Humidity Pressure Visibility Wind Dir Wind Speed Gust Speed Precip Events Conditions
12:53 AM 35.1 °F 24.8 °F 28.0 °F 76% 30.20 in 10.0 mi East 17.3 mph - 0.00 in   Overcast
1:53 AM 35.1 °F 25.9 °F 28.9 °F 78% 30.22 in 5.0 mi East 13.8 mph - 0.00 in   Haze
2:53 AM 34.0 °F 24.6 °F 30.0 °F 85% 30.22 in 8.0 mi East 13.8 mph 20.7 mph N/A   Overcast
3:12 AM 33.8 °F 23.9 °F 30.2 °F 87% 30.22 in 5.0 mi East 15.0 mph - N/A   Overcast
3:53 AM 34.0 °F 24.6 °F 30.9 °F 89% 30.22 in 7.0 mi East 13.8 mph - N/A   Overcast
4:53 AM 34.0 °F 24.6 °F 30.9 °F 89% 30.20 in 7.0 mi East 13.8 mph 21.9 mph N/A   Overcast
5:53 AM 34.0 °F 24.6 °F 30.9 °F 89% 30.20 in 10.0 mi East 13.8 mph - 0.00 in   Overcast
6:08 AM 33.8 °F 24.3 °F 30.2 °F 87% 30.20 in 10.0 mi East 13.8 mph - N/A   Overcast
6:34 AM 35.6 °F 28.0 °F 30.2 °F 81% 30.21 in 10.0 mi East 10.4 mph - N/A   Overcast
6:53 AM 35.1 °F 28.6 °F 30.9 °F 85% 30.22 in 10.0 mi East 8.1 mph - N/A   Overcast
7:53 AM 35.1 °F 27.4 °F 30.9 °F 85% 30.22 in 10.0 mi East 10.4 mph - N/A   Overcast
8:53 AM 35.1 °F 27.4 °F 30.9 °F 85% 30.25 in 9.0 mi East 10.4 mph - N/A   Overcast
9:53 AM 35.1 °F 27.4 °F 32.0 °F 89% 30.25 in 8.0 mi East 10.4 mph - N/A   Overcast
9:55 AM 35.6 °F 28.6 °F 32.0 °F 87% 30.25 in 8.0 mi East 9.2 mph - N/A   Overcast
10:53 AM 36.0 °F 28.0 °F 32.0 °F 86% 30.26 in 9.0 mi East 11.5 mph - N/A   Overcast
11:53 AM 37.0 °F 31.0 °F 33.1 °F 86% 30.22 in 6.0 mi East 8.1 mph - 0.00 in Rain Light Rain
12:53 PM 37.0 °F 31.6 °F 32.0 °F 82% 30.20 in 10.0 mi East 6.9 mph - 0.00 in   Overcast
1:53 PM 37.9 °F 32.1 °F 33.1 °F 83% 30.20 in 10.0 mi East 8.1 mph - N/A   Overcast
2:53 PM 37.9 °F 31.5 °F 33.1 °F 83% 30.19 in 10.0 mi East 9.2 mph - N/A   Overcast
3:28 PM 37.4 °F 32.1 °F 32.0 °F 81% 30.18 in 10.0 mi East 6.9 mph - N/A   Overcast
3:53 PM 37.9 °F 31.5 °F 33.1 °F 83% 30.16 in 10.0 mi East 9.2 mph - N/A   Overcast
4:08 PM 37.4 °F 31.4 °F 33.8 °F 87% 30.16 in 10.0 mi East 8.1 mph - N/A   Overcast
4:53 PM 37.0 °F 31.0 °F 32.0 °F 82% 30.16 in 10.0 mi East 8.1 mph - N/A   Overcast
5:53 PM 37.9 °F 32.7 °F 33.1 °F 83% 30.15 in 10.0 mi ENE 6.9 mph - N/A   Overcast
6:53 PM 37.9 °F 31.5 °F 33.1 °F 83% 30.14 in 10.0 mi East 9.2 mph - N/A   Overcast
7:53 PM 37.9 °F 32.1 °F 33.1 °F 83% 30.15 in 9.0 mi East 8.1 mph - 0.00 in Rain Light Rain
8:53 PM 37.9 °F 32.7 °F 34.0 °F 86% 30.13 in 8.0 mi East 6.9 mph - 0.02 in Rain Light Rain
9:53 PM 37.9 °F 32.7 °F 35.1 °F 89% 30.13 in 7.0 mi East 6.9 mph - 0.03 in Rain Light Rain
10:53 PM 37.9 °F 30.5 °F 35.1 °F 89% 30.10 in 6.0 mi East 11.5 mph - 0.03 in Rain Light Rain
11:53 PM 37.9 °F 32.7 °F 35.1 °F 89% 30.09 in 7.0 mi East 6.9 mph - 0.03 in Rain Light Rain